Stuttgart, AR

6:50 PM CST on January 22, 2017 (GMT -0600)
Stuttgart Municipal

Weather History for KSGT - April, 2014

Change the Weather History Date:

Thursday, April 3, 2014

  Actual Average Record
Temperature  
Mean Temperature 76 °F -  
Max Temperature 84 °F 67 °F 84 °F (2007)
Min Temperature 68 °F 49 °F 39 °F (2013)
Cooling Degree Days 11    
Growing Degree Days 26 (Base 50)    
Moisture  
Dew Point 64 °F    
Average Humidity 70    
Maximum Humidity 88    
Minimum Humidity 48    
Precipitation  
Precipitation 0.00 in - - ()
Sea Level Pressure  
Sea Level Pressure 29.80 in    
Wind  
Wind Speed 18 mph (South)    
Max Wind Speed 28 mph    
Max Gust Speed 32 mph    
Visibility 10 miles    
Events      
Averages and records for this station are not official NWS values.
T = Trace of Precipitation, MM = Missing Value Source: NWS Daily Summary

Daily Weather History Graph

Daily Weather History Graph

Search for Another Location

Airport or City:

Trip Planner

Search our weather history database for the weather conditions in past years. The results will help you decide how hot, cold, wet, or windy it might be!

Date:

Astronomy

Apr. 03, 2014 Rise Set
Actual Time 6:50 AM CDT 7:28 PM CDT
Civil Twilight 6:25 AM CDT 7:54 PM CDT
Nautical Twilight 5:55 AM CDT 8:24 PM CDT
Astronomical Twilight 5:24 AM CDT 8:55 PM CDT
Moon 9:28 AM CDT (4/3) 11:40 PM CDT (4/3)
Length of Visible Light 13h 29m
Length of Day
12h 38m
Waxing Crescent, 17% of the Moon is Illuminated
Apr 3
Waxing Crescent
Apr 7
First Quarter
Apr 15
Full
Apr 22
Last Quarter
Apr 29
New

Hourly Weather History & Observations

Time (CDT) Temp. Heat Index Dew Point Humidity Pressure Visibility Wind Dir Wind Speed Gust Speed Precip Events Conditions
12:15 AM 71.6 °F - 64.4 °F 78% 29.87 in 10.0 mi South 16.1 mph - N/A   Partly Cloudy
12:35 AM 71.6 °F - 64.4 °F 78% 29.87 in 10.0 mi South 16.1 mph - N/A   Scattered Clouds
12:55 AM 71.6 °F - 62.6 °F 73% 29.87 in 10.0 mi South 17.3 mph - N/A   Mostly Cloudy
1:15 AM 71.6 °F - 62.6 °F 73% 29.85 in 10.0 mi South 17.3 mph - N/A   Mostly Cloudy
1:35 AM 71.6 °F - 62.6 °F 73% 29.85 in 10.0 mi South 18.4 mph - N/A   Mostly Cloudy
1:55 AM 71.6 °F - 62.6 °F 73% 29.85 in 10.0 mi South 17.3 mph 24.2 mph N/A   Overcast
2:35 AM 71.6 °F - 62.6 °F 73% 29.84 in 10.0 mi South 18.4 mph 23.0 mph N/A   Overcast
2:55 AM 71.6 °F - 62.6 °F 73% 29.84 in 10.0 mi South 18.4 mph 26.5 mph N/A   Overcast
3:15 AM 71.6 °F - 62.6 °F 73% 29.83 in 10.0 mi South 19.6 mph 25.3 mph N/A   Mostly Cloudy
3:35 AM 69.8 °F - 62.6 °F 78% 29.83 in 10.0 mi South 19.6 mph 26.5 mph N/A   Partly Cloudy
3:55 AM 69.8 °F - 62.6 °F 78% 29.82 in 10.0 mi South 17.3 mph - N/A   Mostly Cloudy
4:15 AM 69.8 °F - 62.6 °F 78% 29.81 in 10.0 mi South 17.3 mph 24.2 mph N/A   Overcast
4:35 AM 69.8 °F - 62.6 °F 78% 29.80 in 10.0 mi SSE 18.4 mph - N/A   Overcast
4:55 AM 69.8 °F - 62.6 °F 78% 29.80 in 10.0 mi SSE 19.6 mph 27.6 mph N/A   Mostly Cloudy
5:15 AM 69.8 °F - 62.6 °F 78% 29.80 in 10.0 mi South 21.9 mph 27.6 mph N/A   Mostly Cloudy
5:35 AM 69.8 °F - 62.6 °F 78% 29.80 in 10.0 mi South 21.9 mph - N/A   Overcast
5:55 AM 68.0 °F - 62.6 °F 83% 29.79 in 10.0 mi SSE 27.6 mph 32.2 mph N/A   Overcast
6:15 AM 68.0 °F - 62.6 °F 83% 29.79 in 10.0 mi SSE 25.3 mph 29.9 mph N/A   Overcast
6:35 AM 68.0 °F - 62.6 °F 83% 29.81 in 10.0 mi South 18.4 mph - N/A   Overcast
6:55 AM 68.0 °F - 62.6 °F 83% 29.82 in 10.0 mi South 20.7 mph - N/A   Overcast
7:15 AM 69.8 °F - 64.4 °F 83% 29.83 in 10.0 mi South 18.4 mph - N/A   Mostly Cloudy
7:35 AM 68.0 °F - 64.4 °F 88% 29.83 in 10.0 mi South 18.4 mph - N/A   Mostly Cloudy
7:55 AM 69.8 °F - 64.4 °F 83% 29.83 in 10.0 mi South 21.9 mph 26.5 mph N/A   Overcast
8:15 AM 69.8 °F - 64.4 °F 83% 29.84 in 10.0 mi South 17.3 mph - N/A   Mostly Cloudy
8:35 AM 69.8 °F - 64.4 °F 83% 29.85 in 10.0 mi South 17.3 mph - N/A   Overcast
8:55 AM 69.8 °F - 64.4 °F 83% 29.85 in 10.0 mi South 17.3 mph - N/A   Overcast
9:15 AM 69.8 °F - 64.4 °F 83% 29.85 in 10.0 mi SSE 12.7 mph - N/A   Overcast
9:35 AM 69.8 °F - 64.4 °F 83% 29.85 in 10.0 mi South 13.8 mph - N/A   Overcast
9:55 AM 71.6 °F - 66.2 °F 83% 29.85 in 10.0 mi South 12.7 mph - N/A   Overcast
10:15 AM 71.6 °F - 66.2 °F 83% 29.84 in 10.0 mi South 11.5 mph - N/A   Overcast
10:35 AM 71.6 °F - 66.2 °F 83% 29.84 in 10.0 mi SSE 10.4 mph - N/A   Overcast
10:55 AM 71.6 °F - 66.2 °F 83% 29.83 in 10.0 mi SSE 13.8 mph - N/A   Overcast
11:15 AM 71.6 °F - 66.2 °F 83% 29.83 in 10.0 mi South 12.7 mph - N/A   Overcast
11:35 AM 73.4 °F - 66.2 °F 78% 29.81 in 10.0 mi South 15.0 mph - N/A   Overcast
11:55 AM 73.4 °F - 66.2 °F 78% 29.81 in 10.0 mi South 15.0 mph - N/A   Overcast
12:15 PM 75.2 °F - 66.2 °F 73% 29.82 in 10.0 mi South 13.8 mph - N/A   Overcast
12:35 PM 80.6 °F 82.7 °F 66.2 °F 61% 29.82 in 10.0 mi SSW 13.8 mph 29.9 mph N/A   Overcast
12:55 PM 78.8 °F - 66.2 °F 65% 29.82 in 10.0 mi SSW 19.6 mph 23.0 mph N/A   Overcast
1:15 PM 80.6 °F 82.7 °F 66.2 °F 61% 29.82 in 10.0 mi SW 20.7 mph 24.2 mph N/A   Mostly Cloudy
1:35 PM 80.6 °F 82.7 °F 66.2 °F 61% 29.82 in 10.0 mi SW 17.3 mph 24.2 mph N/A   Mostly Cloudy
1:55 PM 82.4 °F 84.6 °F 66.2 °F 58% 29.82 in 10.0 mi SW 16.1 mph 24.2 mph N/A   Mostly Cloudy
2:15 PM 84.2 °F 86.6 °F 66.2 °F 55% 29.81 in 10.0 mi SSW 18.4 mph - N/A   Partly Cloudy
2:35 PM 82.4 °F 83.9 °F 64.4 °F 54% 29.80 in 10.0 mi SSW 18.4 mph 23.0 mph N/A   Partly Cloudy
2:55 PM 82.4 °F 83.9 °F 64.4 °F 54% 29.79 in 10.0 mi SSW 17.3 mph - N/A   Scattered Clouds
3:15 PM 84.2 °F 85.6 °F 64.4 °F 51% 29.77 in 10.0 mi South 19.6 mph 24.2 mph N/A   Scattered Clouds
3:35 PM 84.2 °F 85.6 °F 64.4 °F 51% 29.77 in 10.0 mi SSW 19.6 mph 23.0 mph N/A   Mostly Cloudy
3:55 PM 84.2 °F 85.0 °F 62.6 °F 48% 29.76 in 10.0 mi SSW 19.6 mph 27.6 mph N/A   Mostly Cloudy
4:15 PM 84.2 °F 85.0 °F 62.6 °F 48% 29.74 in 10.0 mi South 23.0 mph 31.1 mph N/A   Scattered Clouds
4:35 PM 82.4 °F 83.4 °F 62.6 °F 51% 29.73 in 10.0 mi South 24.2 mph 28.8 mph N/A   Clear
4:55 PM 84.2 °F 85.0 °F 62.6 °F 48% 29.73 in 10.0 mi South 21.9 mph 28.8 mph N/A   Clear
5:15 PM 84.2 °F 85.0 °F 62.6 °F 48% 29.73 in 10.0 mi South 23.0 mph 31.1 mph N/A   Partly Cloudy
5:55 PM 82.4 °F 83.4 °F 62.6 °F 51% 29.73 in 10.0 mi South 21.9 mph - N/A   Partly Cloudy
6:15 PM 80.6 °F 81.8 °F 62.6 °F 54% 29.73 in 10.0 mi South 20.7 mph 27.6 mph N/A   Clear
6:35 PM 80.6 °F 81.8 °F 62.6 °F 54% 29.74 in 10.0 mi South 17.3 mph - N/A   Scattered Clouds
6:55 PM 78.8 °F - 62.6 °F 57% 29.74 in 10.0 mi South 16.1 mph - N/A   Scattered Clouds
7:15 PM 78.8 °F - 62.6 °F 57% 29.73 in 10.0 mi South 15.0 mph - N/A   Partly Cloudy
7:35 PM 78.8 °F - 62.6 °F 57% 29.74 in 10.0 mi South 13.8 mph - N/A   Clear
7:55 PM 78.8 °F - 60.8 °F 54% 29.74 in 10.0 mi South 13.8 mph - N/A   Scattered Clouds
8:15 PM 75.2 °F - 62.6 °F 65% 29.74 in 8.0 mi South 9.2 mph - N/A   Partly Cloudy
8:35 PM 77.0 °F - 60.8 °F 57% 29.73 in 9.0 mi SSE 11.5 mph - N/A   Clear
8:55 PM 75.2 °F - 62.6 °F 65% 29.74 in 10.0 mi South 11.5 mph - N/A   Clear
9:15 PM 73.4 °F - 62.6 °F 69% 29.73 in 5.0 mi SSE 10.4 mph - N/A   Clear
9:35 PM 73.4 °F - 62.6 °F 69% 29.72 in 10.0 mi SSE 13.8 mph - N/A   Clear
10:55 PM 75.2 °F - 64.4 °F 69% 29.70 in 10.0 mi SSE 18.4 mph - N/A   Scattered Clouds
11:15 PM 75.2 °F - 64.4 °F 69% 29.71 in 10.0 mi South 24.2 mph 29.9 mph N/A   Partly Cloudy
11:35 PM 75.2 °F - 64.4 °F 69% 29.72 in 10.0 mi South 19.6 mph 25.3 mph N/A   Partly Cloudy
11:55 PM 73.4 °F - 66.2 °F 78% 29.72 in 10.0 mi South 18.4 mph 28.8 mph N/A   Mostly Cloudy